Hettinger, ND

6:35 AM MST on November 19, 2017 (GMT -0700)
Hettinger Municipal

Weather History for KHEI - August, 2013

Change the Weather History Date:

Thursday, August 29, 2013

  Actual Average Record
Temperature  
Mean Temperature 77 °F -  
Max Temperature 90 °F 81 °F 104 °F (2012)
Min Temperature 63 °F 49 °F 35 °F (2003)
Cooling Degree Days 12 3  
Month to date cooling degree days 136 144  
Year to date cooling degree days 234 344  
Since 1 June cooling degree days 227 339  
Growing Degree Days 27 (Base 50)    
Moisture  
Dew Point 62 °F    
Average Humidity 66    
Maximum Humidity 93    
Minimum Humidity 34    
Precipitation  
Precipitation 0.00 in 0.07 in 0.09 in (1999)
Month to date precipitation 1.85 1.57  
Year to date precipitation 16.55 12.15  
Sea Level Pressure  
Sea Level Pressure 29.93 in    
Wind  
Wind Speed 7 mph (North)    
Max Wind Speed 17 mph    
Max Gust Speed 22 mph    
Visibility 10 miles    
Events      
T = Trace of Precipitation, MM = Missing Value Source: NWS Daily Summary

Daily Weather History Graph

Daily Weather History Graph

Search for Another Location

Airport or City:

Trip Planner

Search our weather history database for the weather conditions in past years. The results will help you decide how hot, cold, wet, or windy it might be!

Date:

Astronomy

Aug. 29, 2013 Rise Set
Actual Time 6:07 AM MDT 7:34 PM MDT
Civil Twilight 5:36 AM MDT 8:05 PM MDT
Nautical Twilight 4:59 AM MDT 8:42 PM MDT
Astronomical Twilight 4:18 AM MDT 9:22 PM MDT
Moon No Moon Rise 3:14 PM MDT (8/29)
Length of Visible Light 14h 28m
Length of Day
13h 26m
Last Quarter, 37% of the Moon is Illuminated
Aug 29
Last Quarter
Sep 5
New
Sep 12
First Quarter
Sep 19
Full
Sep 26
Last Quarter

Hourly Weather History & Observations

Time (MDT) Temp. Heat Index Dew Point Humidity Pressure Visibility Wind Dir Wind Speed Gust Speed Precip Events Conditions
12:53 AM 72.0 °F - 64.9 °F 78% 29.83 in 10.0 mi SE 13.8 mph - N/A   Clear
1:53 AM 70.0 °F - 64.9 °F 84% 29.84 in 10.0 mi Calm Calm - N/A   Clear
2:53 AM 70.0 °F - 64.9 °F 84% 29.85 in 10.0 mi North 9.2 mph - N/A   Clear
3:53 AM 70.0 °F - 64.9 °F 84% 29.83 in 10.0 mi Calm Calm - N/A   Clear
4:53 AM 66.9 °F - 64.0 °F 90% 29.85 in 10.0 mi SE 3.5 mph - N/A   Clear
5:53 AM 64.9 °F - 63.0 °F 93% 29.88 in 10.0 mi Calm Calm - N/A   Clear
6:53 AM 64.0 °F - 63.0 °F 96% 29.90 in 4.0 mi WNW 3.5 mph - N/A   Clear
7:53 AM 71.1 °F - 66.9 °F 87% 29.92 in 10.0 mi WNW 9.2 mph - N/A   Clear
8:53 AM 75.9 °F - 66.9 °F 74% 29.92 in 10.0 mi WNW 9.2 mph - N/A   Clear
9:53 AM 81.0 °F 82.5 °F 64.0 °F 56% 29.93 in 10.0 mi WNW 15.0 mph - N/A   Clear
10:53 AM 82.0 °F 83.1 °F 63.0 °F 52% 29.95 in 10.0 mi NW 15.0 mph - N/A   Clear
11:53 AM 84.0 °F 84.5 °F 62.1 °F 47% 29.95 in 10.0 mi NNW 11.5 mph - N/A   Clear
12:53 PM 87.1 °F 87.0 °F 61.0 °F 41% 29.94 in 10.0 mi NNW 9.2 mph 18.4 mph N/A   Clear
1:53 PM 88.0 °F 87.6 °F 60.1 °F 39% 29.95 in 10.0 mi North 9.2 mph - N/A   Clear
2:53 PM 90.0 °F 89.1 °F 59.0 °F 35% 29.94 in 10.0 mi North 6.9 mph - N/A   Partly Cloudy
3:53 PM 90.0 °F 88.8 °F 57.9 °F 34% 29.94 in 10.0 mi North 13.8 mph 19.6 mph N/A   Clear
4:53 PM 90.0 °F 88.6 °F 57.0 °F 33% 29.94 in 10.0 mi North 13.8 mph 17.3 mph N/A   Clear
5:53 PM 87.1 °F 85.9 °F 57.0 °F 36% 29.96 in 10.0 mi NNE 10.4 mph - N/A   Clear
6:53 PM 82.0 °F 82.7 °F 61.0 °F 49% 29.98 in 10.0 mi NE 6.9 mph - N/A   Clear
7:53 PM 72.0 °F - 61.0 °F 68% 29.99 in 10.0 mi NE 6.9 mph - N/A   Clear
8:53 PM 68.0 °F - 61.0 °F 78% 30.00 in 10.0 mi NE 6.9 mph - N/A   Clear
9:53 PM 68.0 °F - 61.0 °F 78% 30.00 in 10.0 mi ENE 6.9 mph - N/A   Clear
10:53 PM 64.9 °F - 60.1 °F 84% 30.01 in 10.0 mi Calm Calm - N/A   Clear
11:53 PM 66.0 °F - 61.0 °F 84% 30.01 in 10.0 mi East 3.5 mph - N/A   Clear